SCP
0 0 0 0 0 0 0 0 0 0 0 0 0 0 0 0 0 0 0 0 -0 -0
0 0 0 0 0 0 0 0 0 0 0 0 0 0 0 0 0 0 0 -0 0 0
0 0 0 0 0 0 0 0 0 0 0 0 0 0 0 0 0 0 0 0 0 0
0 0 0 0 0 0 0 0 -0 0 0 0 0 0 0 0 0 0 0 0 0 0
0 0 0 0 -0 -0 0 -0 -0 0 0 0 0 0 0 0 0 0 0 0 -0 0
0 0 0 0 -0 -0 -0 -0 0 0 0 0 0 0 0 0 -0 0 0 0 0 0
0 0 0 0 -0 -0 -0 -0 0 -0 0 0 0 -0 0 0 0 -0 -0 -0 0 0
0 0 0 0 0 -0 0 0 -0 -0 -0 -0 0 0 0 0 0 0 0 -0 -0 0
0 0 -0 0 0 0 0 0 0 -0 -0 -0 -0 -0 0 0 0 0 0 0 0 0
0 -0 -0 -0 -0 0 0 0 0 0 -0 -0 -0 0 0 -0 0 0 0 0 0 0
-0 -0 -0 -0 0 0 0 0 0 0 0 0 -0 0 -0 0 0 0 0 0 0 0
-0 -0 -0 -0 -0 0 0 0 0 0 0 0 0 -0 -0 -0 0 0 0 0 0 0
-0 -0 -0 -0 -0 -0 0 0 0 0 0 0 0 0 -0 -0 0 0 0 0 0 -0
0 -0 -0 -0 -0 -0 0 0 0 0 0 0 0 -0 -0 -0 0 0 0 0 -0 0
Wind_Speed_500mb
35 33 27 25 27 25 25 24 25 22 15 15 16 15 10 10 11 12 12 15 17 21
34 27 26 28 24 22 22 16 16 12 11 10 10 10 13 18 18 13 16 17 17 20
30 26 23 22 20 18 14 13 13 10 8 7 8 11 13 19 12 12 14 13 15 20
26 20 18 15 16 16 17 16 15 9 4 2 6 12 12 16 15 12 13 12 11 15
22 18 15 13 14 18 19 18 14 6 4 6 13 15 14 16 17 18 16 12 19 17
19 13 14 14 14 17 19 16 8 3 6 13 13 7 6 15 22 25 27 22 15 17
17 11 13 18 12 27 22 10 3 2 7 9 7 4 9 12 14 17 25 20 13 16
18 13 19 26 25 25 18 12 7 2 6 11 8 9 9 6 5 6 8 14 12 18
13 14 25 28 22 21 19 12 7 1 5 11 12 9 8 9 11 9 13 14 14 15
12 21 27 33 24 21 20 16 11 2 3 9 10 10 8 15 13 14 17 13 12 10
18 20 25 36 26 24 19 16 13 4 1 5 8 9 9 14 18 21 19 13 12 14
21 22 27 32 34 26 24 19 13 5 1 2 6 7 9 12 18 22 21 20 21 27
22 25 24 25 28 26 22 20 15 10 5 4 2 2 8 9 11 20 24 25 28 33
27 22 21 21 20 20 22 21 18 14 11 7 9 5 10 11 7 13 27 31 35 39
Wind_Direction_500mb
177 172 178 193 198 204 213 230 249 264 247 231 246 249 246 251 263 251 242 236 230 227
176 182 189 183 194 211 237 247 249 208 215 227 244 247 237 234 246 242 247 242 239 231
172 175 188 201 212 217 221 192 185 190 201 229 268 270 243 240 240 225 229 234 243 228
176 180 181 198 203 195 168 159 154 151 162 245 276 286 250 237 232 217 220 232 236 222
158 155 175 172 166 169 159 162 152 137 44 329 300 292 249 240 235 230 238 265 239 224
151 169 173 174 171 161 159 160 152 74 338 323 312 295 263 253 244 245 237 240 231 214
176 177 181 168 152 163 152 151 157 342 321 338 334 288 294 289 266 271 225 211 211 204
182 188 182 167 147 152 150 176 191 221 357 3 355 340 338 10 87 90 161 195 196 194
205 205 180 174 166 172 171 169 168 191 11 10 14 15 45 68 66 81 123 137 163 186
191 181 176 171 169 176 179 171 176 282 15 21 26 36 67 73 77 102 126 129 133 143
164 169 177 180 178 175 174 171 196 251 24 27 26 44 66 90 94 96 109 123 119 120
165 173 176 185 194 191 188 181 211 223 274 328 25 62 87 100 104 104 100 115 106 112
167 165 160 166 179 190 198 208 213 222 224 207 187 92 120 121 106 111 112 120 119 123
177 173 165 170 184 191 205 209 220 223 218 217 191 186 154 142 118 115 128 120 135 135
Wind_Speed_850mb
35 33 27 25 27 25 25 24 25 22 15 15 16 15 10 10 11 12 12 15 17 21
34 27 26 28 24 22 22 16 16 12 11 10 10 10 13 18 18 13 16 17 17 20
30 26 23 22 20 18 14 13 13 10 8 7 8 11 13 19 12 12 14 13 15 20
26 20 18 15 16 16 17 16 15 9 4 2 6 12 12 16 15 12 13 12 11 15
22 18 15 13 14 18 19 18 14 6 4 6 13 15 14 16 17 18 16 12 19 17
19 13 14 14 14 17 19 16 8 3 6 13 13 7 6 15 22 25 27 22 15 17
17 11 13 18 12 27 22 10 3 2 7 9 7 4 9 12 14 17 25 20 13 16
18 13 19 26 25 25 18 12 7 2 6 11 8 9 9 6 5 6 8 14 12 18
13 14 25 28 22 21 19 12 7 1 5 11 12 9 8 9 11 9 13 14 14 15
12 21 27 33 24 21 20 16 11 2 3 9 10 10 8 15 13 14 17 13 12 10
18 20 25 36 26 24 19 16 13 4 1 5 8 9 9 14 18 21 19 13 12 14
21 22 27 32 34 26 24 19 13 5 1 2 6 7 9 12 18 22 21 20 21 27
22 25 24 25 28 26 22 20 15 10 5 4 2 2 8 9 11 20 24 25 28 33
27 22 21 21 20 20 22 21 18 14 11 7 9 5 10 11 7 13 27 31 35 39
Wind_Direction_850mb
177 172 178 193 198 204 213 230 249 264 247 231 246 249 246 251 263 251 242 236 230 227
176 182 189 183 194 211 237 247 249 208 215 227 244 247 237 234 246 242 247 242 239 231
172 175 188 201 212 217 221 192 185 190 201 229 268 270 243 240 240 225 229 234 243 228
176 180 181 198 203 195 168 159 154 151 162 245 276 286 250 237 232 217 220 232 236 222
158 155 175 172 166 169 159 162 152 137 44 329 300 292 249 240 235 230 238 265 239 224
151 169 173 174 171 161 159 160 152 74 338 323 312 295 263 253 244 245 237 240 231 214
176 177 181 168 152 163 152 151 157 342 321 338 334 288 294 289 266 271 225 211 211 204
182 188 182 167 147 152 150 176 191 221 357 3 355 340 338 10 87 90 161 195 196 194
205 205 180 174 166 172 171 169 168 191 11 10 14 15 45 68 66 81 123 137 163 186
191 181 176 171 169 176 179 171 176 282 15 21 26 36 67 73 77 102 126 129 133 143
164 169 177 180 178 175 174 171 196 251 24 27 26 44 66 90 94 96 109 123 119 120
165 173 176 185 194 191 188 181 211 223 274 328 25 62 87 100 104 104 100 115 106 112
167 165 160 166 179 190 198 208 213 222 224 207 187 92 120 121 106 111 112 120 119 123
177 173 165 170 184 191 205 209 220 223 218 217 191 186 154 142 118 115 128 120 135 135